Time,TemperatureF,DewpointF,PressureIn,WindDirection,WindDirectionDegrees,WindSpeedMPH,WindSpeedGustMPH,Humidity,HourlyPrecipIn,Conditions,Clouds,dailyrainin,SoftwareType,DateUTC
2013-07-09 00:00:00,80.9,62.7,29.29,SE,135,0.2,1.6,54,0.00,,,0.00,WSDL version 426,2013-07-09 05:00:00,
2013-07-09 00:05:00,80.4,61.4,29.29,SE,135,1.1,1.6,52,0.00,,,0.00,WSDL version 426,2013-07-09 05:05:00,
2013-07-09 00:10:00,79.8,61.2,29.29,SE,135,1.4,2.0,53,0.00,,,0.00,WSDL version 426,2013-07-09 05:10:00,
2013-07-09 00:15:00,79.3,61.1,29.29,SE,135,0.7,2.0,54,0.00,,,0.00,WSDL version 426,2013-07-09 05:15:00,
2013-07-09 00:20:00,79.4,62.5,29.29,SE,145,0.2,1.6,57,0.00,,,0.00,WSDL version 426,2013-07-09 05:20:00,
2013-07-09 00:25:00,79.8,62.9,29.29,SE,135,1.0,1.6,55,0.00,,,0.00,WSDL version 426,2013-07-09 05:25:00,
2013-07-09 00:30:00,79.3,61.8,29.29,SE,135,0.0,1.6,55,0.00,,,0.00,WSDL version 426,2013-07-09 05:30:00,
2013-07-09 00:35:00,78.8,61.4,29.29,SE,135,0.2,1.6,56,0.00,,,0.00,WSDL version 426,2013-07-09 05:35:00,
2013-07-09 00:40:00,78.5,62.1,29.29,SE,135,0.7,1.6,59,0.00,,,0.00,WSDL version 426,2013-07-09 05:40:00,
2013-07-09 00:45:00,79.0,63.6,29.29,ESE,113,0.9,2.0,59,0.00,,,0.00,WSDL version 426,2013-07-09 05:45:00,
2013-07-09 00:50:00,79.0,63.0,29.29,ESE,113,1.5,2.5,58,0.00,,,0.00,WSDL version 426,2013-07-09 05:50:00,
2013-07-09 00:55:00,78.3,62.4,29.29,ESE,113,1.9,2.5,58,0.00,,,0.00,WSDL version 426,2013-07-09 05:55:00,
2013-07-09 01:00:00,77.9,61.9,29.29,SE,128,1.9,2.9,58,0.00,,,0.00,WSDL version 426,2013-07-09 06:00:00,
2013-07-09 01:05:00,78.1,63.0,29.29,SSE,166,2.3,3.4,60,0.00,,,0.00,WSDL version 426,2013-07-09 06:05:00,
2013-07-09 01:10:00,78.7,63.3,29.29,SSE,163,2.7,4.0,58,0.00,,,0.00,WSDL version 426,2013-07-09 06:10:00,
2013-07-09 01:15:00,78.5,62.5,29.29,SSE,149,2.5,4.0,58,0.00,,,0.00,WSDL version 426,2013-07-09 06:15:00,
2013-07-09 01:20:00,78.1,62.1,29.26,SSE,153,2.3,4.3,58,0.00,,,0.00,WSDL version 426,2013-07-09 06:20:00,
2013-07-09 01:25:00,77.9,62.2,29.26,SSE,160,2.0,4.3,60,0.00,,,0.00,WSDL version 426,2013-07-09 06:25:00,
2013-07-09 01:30:00,78.3,63.3,29.26,SSE,165,2.6,4.0,60,0.00,,,0.00,WSDL version 426,2013-07-09 06:30:00,
2013-07-09 01:35:00,78.4,63.0,29.26,SSE,158,3.1,4.7,59,0.00,,,0.00,WSDL version 426,2013-07-09 06:35:00,
2013-07-09 01:40:00,78.1,62.6,29.26,SSE,149,2.8,4.7,59,0.00,,,0.00,WSDL version 426,2013-07-09 06:40:00,
2013-07-09 01:45:00,77.9,62.6,29.26,SSE,163,2.3,4.0,60,0.00,,,0.00,WSDL version 426,2013-07-09 06:45:00,
2013-07-09 01:50:00,77.8,63.0,29.26,SSE,152,2.7,4.7,61,0.00,,,0.00,WSDL version 426,2013-07-09 06:50:00,
2013-07-09 01:55:00,78.4,63.5,29.26,SSE,165,2.7,4.9,60,0.00,,,0.00,WSDL version 426,2013-07-09 06:55:00,
2013-07-09 02:00:00,78.2,63.1,29.26,SSE,155,2.6,4.9,60,0.00,,,0.00,WSDL version 426,2013-07-09 07:00:00,
2013-07-09 02:05:00,77.9,62.7,29.26,SSE,160,2.8,4.0,60,0.00,,,0.00,WSDL version 426,2013-07-09 07:05:00,
2013-07-09 02:10:00,77.7,62.7,29.26,SSE,161,2.7,4.0,60,0.00,,,0.00,WSDL version 426,2013-07-09 07:10:00,
2013-07-09 02:15:00,77.7,62.8,29.26,SSE,165,2.2,4.0,61,0.00,,,0.00,WSDL version 426,2013-07-09 07:15:00,
2013-07-09 02:20:00,77.9,63.5,29.26,SSE,163,2.6,4.0,61,0.00,,,0.00,WSDL version 426,2013-07-09 07:20:00,
2013-07-09 02:25:00,78.1,63.4,29.26,SSE,152,2.2,4.3,60,0.00,,,0.00,WSDL version 426,2013-07-09 07:25:00,
2013-07-09 02:30:00,77.9,63.4,29.26,SSE,168,3.5,6.3,61,0.00,,,0.00,WSDL version 426,2013-07-09 07:30:00,
2013-07-09 02:35:00,77.9,63.3,29.26,SSE,154,2.7,6.3,61,0.00,,,0.00,WSDL version 426,2013-07-09 07:35:00,
2013-07-09 02:40:00,77.9,63.5,29.26,South,175,3.5,4.9,61,0.00,,,0.00,WSDL version 426,2013-07-09 07:40:00,
2013-07-09 02:45:00,78.0,63.8,29.26,SSE,158,3.2,5.4,62,0.00,,,0.00,WSDL version 426,2013-07-09 07:45:00,
2013-07-09 02:52:00,78.4,63.9,29.29,SSE,153,3.5,6.0,61,0.00,,,0.00,WSDL version 426,2013-07-09 07:52:00,
2013-07-09 02:58:00,78.4,63.9,29.29,SSE,158,3.7,6.5,61,0.00,,,0.00,WSDL version 426,2013-07-09 07:58:00,
2013-07-09 03:03:00,78.3,63.7,29.29,SSE,158,3.9,6.5,61,0.00,,,0.00,WSDL version 426,2013-07-09 08:03:00,
2013-07-09 03:09:00,78.3,63.7,29.29,SSE,165,4.1,6.5,61,0.00,,,0.00,WSDL version 426,2013-07-09 08:09:00,
2013-07-09 03:14:00,78.3,63.7,29.29,SSE,163,3.9,7.8,61,0.00,,,0.00,WSDL version 426,2013-07-09 08:14:00,
2013-07-09 03:19:00,78.3,63.9,29.29,South,172,3.4,7.8,62,0.00,,,0.00,WSDL version 426,2013-07-09 08:19:00,
2013-07-09 03:24:00,78.4,63.9,29.29,SSE,166,3.8,6.3,61,0.00,,,0.00,WSDL version 426,2013-07-09 08:24:00,
2013-07-09 03:29:00,78.3,63.7,29.29,SSE,160,4.1,6.5,61,0.00,,,0.00,WSDL version 426,2013-07-09 08:29:00,
2013-07-09 03:34:00,78.2,63.7,29.29,SSE,160,4.2,6.5,61,0.00,,,0.00,WSDL version 426,2013-07-09 08:34:00,
2013-07-09 03:39:00,78.1,63.6,29.29,SSE,160,2.9,6.0,61,0.00,,,0.00,WSDL version 426,2013-07-09 08:39:00,
2013-07-09 03:44:00,77.9,63.5,29.29,SSE,158,3.0,5.4,61,0.00,,,0.00,WSDL version 426,2013-07-09 08:44:00,
2013-07-09 03:49:00,77.8,63.6,29.29,SSE,155,3.2,4.9,62,0.00,,,0.00,WSDL version 426,2013-07-09 08:49:00,
2013-07-09 03:54:00,77.9,63.9,29.29,SSE,163,3.3,5.4,62,0.00,,,0.00,WSDL version 426,2013-07-09 08:54:00,
2013-07-09 03:59:00,78.0,63.8,29.29,SSE,161,3.0,5.4,61,0.00,,,0.00,WSDL version 426,2013-07-09 08:59:00,
2013-07-09 04:04:00,77.7,63.5,29.29,South,173,3.3,5.4,62,0.00,,,0.00,WSDL version 426,2013-07-09 09:04:00,
2013-07-09 04:09:00,77.5,63.4,29.26,SE,141,1.9,5.4,62,0.00,,,0.00,WSDL version 426,2013-07-09 09:09:00,
2013-07-09 04:14:00,77.2,63.2,29.26,SSE,151,2.7,4.3,62,0.00,,,0.00,WSDL version 426,2013-07-09 09:14:00,
2013-07-09 04:19:00,77.0,63.4,29.26,SSE,164,2.8,4.3,63,0.00,,,0.00,WSDL version 426,2013-07-09 09:19:00,
2013-07-09 04:24:00,76.9,63.4,29.29,SSE,160,2.0,3.8,64,0.00,,,0.00,WSDL version 426,2013-07-09 09:24:00,
2013-07-09 04:29:00,77.2,64.1,29.29,SSE,160,2.2,3.8,64,0.00,,,0.00,WSDL version 426,2013-07-09 09:29:00,
2013-07-09 04:34:00,77.2,63.7,29.29,SSE,152,2.1,3.8,63,0.00,,,0.00,WSDL version 426,2013-07-09 09:34:00,
2013-07-09 04:39:00,76.8,63.3,29.29,SSE,155,2.5,3.6,63,0.00,,,0.00,WSDL version 426,2013-07-09 09:39:00,
2013-07-09 04:44:00,76.4,63.2,29.29,SSE,153,1.8,3.6,64,0.00,,,0.00,WSDL version 426,2013-07-09 09:44:00,
2013-07-09 04:49:00,76.2,63.1,29.29,SE,143,1.9,3.4,64,0.00,,,0.00,WSDL version 426,2013-07-09 09:49:00,
2013-07-09 04:54:00,76.0,63.4,29.26,SSE,155,2.8,4.3,65,0.00,,,0.00,WSDL version 426,2013-07-09 09:54:00,
2013-07-09 04:59:00,75.9,63.6,29.26,SSE,160,2.8,4.3,66,0.00,,,0.00,WSDL version 426,2013-07-09 09:59:00,
2013-07-09 05:04:00,76.1,64.4,29.26,SE,145,2.1,3.8,67,0.00,,,0.00,WSDL version 426,2013-07-09 10:04:00,
2013-07-09 05:09:00,76.1,63.9,29.26,SSE,160,3.0,4.0,66,0.00,,,0.00,WSDL version 426,2013-07-09 10:09:00,
2013-07-09 05:14:00,75.8,63.6,29.26,SSE,168,2.5,4.0,66,0.00,,,0.00,WSDL version 426,2013-07-09 10:14:00,
2013-07-09 05:19:00,75.6,63.5,29.26,SSE,155,1.8,3.8,66,0.00,,,0.00,WSDL version 426,2013-07-09 10:19:00,
2013-07-09 05:24:00,75.5,63.4,29.26,South,180,2.1,3.6,66,0.00,,,0.00,WSDL version 426,2013-07-09 10:24:00,
2013-07-09 05:29:00,75.4,63.6,29.26,South,178,2.7,3.6,67,0.00,,,0.00,WSDL version 426,2013-07-09 10:29:00,
2013-07-09 05:34:00,75.5,64.2,29.26,South,186,0.8,3.6,68,0.00,,,0.00,WSDL version 426,2013-07-09 10:34:00,
2013-07-09 05:39:00,75.5,63.8,29.26,SSE,158,1.9,3.8,67,0.00,,,0.00,WSDL version 426,2013-07-09 10:39:00,
2013-07-09 05:44:00,75.3,63.6,29.26,SSE,158,1.8,3.8,67,0.00,,,0.00,WSDL version 426,2013-07-09 10:44:00,
2013-07-09 05:49:00,75.1,63.4,29.26,SSE,158,1.4,3.1,67,0.00,,,0.00,WSDL version 426,2013-07-09 10:49:00,
2013-07-09 05:54:00,74.9,63.2,29.26,SE,146,1.5,3.1,67,0.00,,,0.00,WSDL version 426,2013-07-09 10:54:00,
2013-07-09 05:59:00,74.7,63.3,29.26,ESE,121,1.4,3.4,68,0.00,,,0.00,WSDL version 426,2013-07-09 10:59:00,
2013-07-09 06:04:00,74.6,63.3,29.26,South,170,2.0,3.4,68,0.00,,,0.00,WSDL version 426,2013-07-09 11:04:00,
2013-07-09 06:09:00,74.5,63.4,29.26,SSE,152,1.9,3.8,69,0.00,,,0.00,WSDL version 426,2013-07-09 11:09:00,
2013-07-09 06:14:00,74.5,63.7,29.26,SE,140,2.4,3.8,69,0.00,,,0.00,WSDL version 426,2013-07-09 11:14:00,
2013-07-09 06:19:00,74.4,63.8,29.26,SE,138,1.8,3.8,70,0.00,,,0.00,WSDL version 426,2013-07-09 11:19:00,
2013-07-09 06:24:00,74.3,63.6,29.29,SSE,155,2.6,4.0,69,0.00,,,0.00,WSDL version 426,2013-07-09 11:24:00,
2013-07-09 06:29:00,74.3,63.8,29.29,SSE,150,1.8,4.0,70,0.00,,,0.00,WSDL version 426,2013-07-09 11:29:00,
2013-07-09 06:34:00,74.4,64.0,29.29,SSE,158,2.4,3.8,70,0.00,,,0.00,WSDL version 426,2013-07-09 11:34:00,
2013-07-09 06:39:00,74.5,64.1,29.29,SSE,158,1.9,3.6,70,0.00,,,0.00,WSDL version 426,2013-07-09 11:39:00,
2013-07-09 06:44:00,74.5,64.1,29.29,SSE,160,2.7,5.4,70,0.00,,,0.00,WSDL version 426,2013-07-09 11:44:00,
2013-07-09 06:49:00,74.6,64.2,29.29,South,178,2.6,5.6,70,0.00,,,0.00,WSDL version 426,2013-07-09 11:49:00,
2013-07-09 06:54:00,74.7,64.4,29.29,SSE,160,2.3,5.6,70,0.00,,,0.00,WSDL version 426,2013-07-09 11:54:00,
2013-07-09 06:59:00,74.8,64.4,29.29,SSE,163,3.2,5.4,70,0.00,,,0.00,WSDL version 426,2013-07-09 11:59:00,
2013-07-09 07:04:00,75.0,64.6,29.29,SE,138,2.5,5.4,70,0.00,,,0.00,WSDL version 426,2013-07-09 12:04:00,
2013-07-09 07:09:00,75.2,64.7,29.29,SSE,158,3.0,4.9,70,0.00,,,0.00,WSDL version 426,2013-07-09 12:09:00,
2013-07-09 07:14:00,75.4,64.6,29.29,SSE,160,3.9,5.8,69,0.00,,,0.00,WSDL version 426,2013-07-09 12:14:00,
2013-07-09 07:19:00,75.6,64.7,29.29,SSE,149,3.5,5.8,69,0.00,,,0.00,WSDL version 426,2013-07-09 12:19:00,
2013-07-09 07:24:00,75.8,64.9,29.29,SSE,160,3.5,8.1,69,0.00,,,0.00,WSDL version 426,2013-07-09 12:24:00,
2013-07-09 07:29:00,76.1,65.1,29.29,South,188,3.2,8.1,68,0.00,,,0.00,WSDL version 426,2013-07-09 12:29:00,
2013-07-09 07:34:00,76.4,64.8,29.29,SSE,158,3.4,7.2,67,0.00,,,0.00,WSDL version 426,2013-07-09 12:34:00,
2013-07-09 07:39:00,76.7,64.8,29.29,SSE,155,5.3,10.5,66,0.00,,,0.00,WSDL version 426,2013-07-09 12:39:00,
2013-07-09 07:44:00,77.1,64.7,29.29,SSE,153,4.1,10.5,65,0.00,,,0.00,WSDL version 426,2013-07-09 12:44:00,
2013-07-09 07:49:00,77.3,64.4,29.29,SSE,160,5.9,10.5,64,0.00,,,0.00,WSDL version 426,2013-07-09 12:49:00,
2013-07-09 07:54:00,77.7,64.3,29.29,SSW,197,4.4,8.5,63,0.00,,,0.00,WSDL version 426,2013-07-09 12:54:00,
2013-07-09 07:59:00,78.1,64.1,29.29,SSE,165,4.4,10.1,62,0.00,,,0.00,WSDL version 426,2013-07-09 12:59:00,
2013-07-09 08:04:00,78.4,63.9,29.29,SSE,163,4.9,10.1,60,0.00,,,0.00,WSDL version 426,2013-07-09 13:04:00,
2013-07-09 08:09:00,78.8,62.8,29.29,South,183,8.0,14.5,56,0.00,,,0.00,WSDL version 426,2013-07-09 13:09:00,
2013-07-09 08:14:00,79.4,62.1,29.29,SSW,210,6.1,14.5,55,0.00,,,0.00,WSDL version 426,2013-07-09 13:14:00,
2013-07-09 08:19:00,79.9,61.7,29.29,South,172,5.9,10.3,53,0.00,,,0.00,WSDL version 426,2013-07-09 13:19:00,
2013-07-09 08:24:00,80.3,61.2,29.29,SSW,195,5.4,10.3,52,0.00,,,0.00,WSDL version 426,2013-07-09 13:24:00,
2013-07-09 08:29:00,80.7,61.5,29.29,South,180,3.6,10.3,52,0.00,,,0.00,WSDL version 426,2013-07-09 13:29:00,
2013-07-09 08:34:00,81.1,60.3,29.29,SSW,210,6.2,11.0,49,0.00,,,0.00,WSDL version 426,2013-07-09 13:34:00,
2013-07-09 08:39:00,81.4,60.6,29.32,SSW,200,4.4,11.0,49,0.00,,,0.00,WSDL version 426,2013-07-09 13:39:00,
2013-07-09 08:44:00,81.7,60.1,29.32,SSW,193,6.0,9.6,48,0.00,,,0.00,WSDL version 426,2013-07-09 13:44:00,
2013-07-09 08:49:00,81.9,59.8,29.32,SSW,193,6.8,12.5,47,0.00,,,0.00,WSDL version 426,2013-07-09 13:49:00,
2013-07-09 08:54:00,82.2,60.0,29.32,South,177,5.8,12.5,47,0.00,,,0.00,WSDL version 426,2013-07-09 13:54:00,
2013-07-09 08:59:00,82.5,59.5,29.32,SSW,208,7.3,13.0,45,0.00,,,0.00,WSDL version 426,2013-07-09 13:59:00,
2013-07-09 09:04:00,82.8,59.6,29.32,SSW,208,4.7,13.0,45,0.00,,,0.00,WSDL version 426,2013-07-09 14:04:00,
2013-07-09 09:09:00,83.1,59.6,29.32,South,186,6.2,12.1,45,0.00,,,0.00,WSDL version 426,2013-07-09 14:09:00,
2013-07-09 09:14:00,83.4,59.5,29.32,South,186,7.3,11.0,44,0.00,,,0.00,WSDL version 426,2013-07-09 14:14:00,
2013-07-09 09:19:00,83.8,59.4,29.32,SSW,195,5.6,11.0,44,0.00,,,0.00,WSDL version 426,2013-07-09 14:19:00,
2013-07-09 09:24:00,84.1,59.2,29.32,SSW,208,6.2,12.1,43,0.00,,,0.00,WSDL version 426,2013-07-09 14:24:00,
2013-07-09 09:30:00,84.7,59.4,29.32,SSW,200,5.6,9.8,42,0.00,,,0.00,WSDL version 426,2013-07-09 14:30:00,
2013-07-09 09:35:00,85.1,59.6,29.32,SW,231,6.8,13.2,42,0.00,,,0.00,WSDL version 426,2013-07-09 14:35:00,
2013-07-09 09:40:00,85.7,59.5,29.32,South,188,4.5,13.2,41,0.00,,,0.00,WSDL version 426,2013-07-09 14:40:00,
2013-07-09 09:45:00,86.1,59.6,29.32,SSW,200,6.1,10.1,41,0.00,,,0.00,WSDL version 426,2013-07-09 14:45:00,
2013-07-09 09:50:00,86.4,59.3,29.29,SSW,197,6.1,10.7,40,0.00,,,0.00,WSDL version 426,2013-07-09 14:50:00,
2013-07-09 09:55:00,86.5,59.4,29.29,South,177,6.1,10.7,40,0.00,,,0.00,WSDL version 426,2013-07-09 14:55:00,
2013-07-09 10:00:00,86.8,59.0,29.29,SSE,160,6.0,11.0,40,0.00,,,0.00,WSDL version 426,2013-07-09 15:00:00,
2013-07-09 10:05:00,86.9,59.0,29.29,South,173,7.2,12.8,39,0.00,,,0.00,WSDL version 426,2013-07-09 15:05:00,
2013-07-09 10:10:00,87.2,59.4,29.29,South,169,6.2,12.8,39,0.00,,,0.00,WSDL version 426,2013-07-09 15:10:00,
2013-07-09 10:15:00,87.4,59.2,29.29,South,183,6.7,11.0,39,0.00,,,0.00,WSDL version 426,2013-07-09 15:15:00,
2013-07-09 10:20:00,87.7,59.4,29.32,SW,215,5.0,11.0,38,0.00,,,0.00,WSDL version 426,2013-07-09 15:20:00,
2013-07-09 10:25:00,87.9,59.2,29.32,South,183,6.6,10.5,38,0.00,,,0.00,WSDL version 426,2013-07-09 15:25:00,
2013-07-09 10:30:00,88.4,60.1,29.32,South,173,4.9,9.8,39,0.00,,,0.00,WSDL version 426,2013-07-09 15:30:00,
2013-07-09 10:36:00,88.8,59.8,29.32,SSW,200,4.9,9.8,38,0.00,,,0.00,WSDL version 426,2013-07-09 15:36:00,
2013-07-09 10:41:00,89.3,60.1,29.32,South,177,4.7,7.6,37,0.00,,,0.00,WSDL version 426,2013-07-09 15:41:00,
2013-07-09 10:46:00,89.3,59.7,29.32,SSW,197,5.9,7.8,36,0.00,,,0.00,WSDL version 426,2013-07-09 15:46:00,
2013-07-09 10:51:00,89.6,59.7,29.32,SSE,165,5.5,11.9,36,0.00,,,0.00,WSDL version 426,2013-07-09 15:51:00,
2013-07-09 10:56:00,89.9,59.0,29.32,SE,141,6.9,11.9,36,0.00,,,0.00,WSDL version 426,2013-07-09 15:56:00,
2013-07-09 11:01:00,90.2,59.8,29.32,SSE,158,5.0,10.5,37,0.00,,,0.00,WSDL version 426,2013-07-09 16:01:00,
2013-07-09 11:06:00,90.3,59.0,29.32,South,172,6.2,12.5,35,0.00,,,0.00,WSDL version 426,2013-07-09 16:06:00,
2013-07-09 11:11:00,90.5,59.2,29.32,South,180,6.1,12.5,35,0.00,,,0.00,WSDL version 426,2013-07-09 16:11:00,
2013-07-09 11:16:00,90.8,59.6,29.32,South,174,7.4,13.0,35,0.00,,,0.00,WSDL version 426,2013-07-09 16:16:00,
2013-07-09 11:21:00,91.0,59.3,29.32,SSE,150,8.2,13.0,34,0.00,,,0.00,WSDL version 426,2013-07-09 16:21:00,
2013-07-09 11:26:00,91.3,59.3,29.32,SSW,205,5.2,12.5,34,0.00,,,0.00,WSDL version 426,2013-07-09 16:26:00,
2013-07-09 11:31:00,91.8,59.3,29.32,South,169,7.0,12.5,33,0.00,,,0.00,WSDL version 426,2013-07-09 16:31:00,
2013-07-09 11:36:00,92.5,59.5,29.29,SSE,163,5.9,12.5,33,0.00,,,0.00,WSDL version 426,2013-07-09 16:36:00,
2013-07-09 11:41:00,92.5,59.0,29.29,South,186,4.9,11.0,32,0.00,,,0.00,WSDL version 426,2013-07-09 16:41:00,
2013-07-09 11:46:00,92.6,59.1,29.29,SSE,168,7.1,12.1,33,0.00,,,0.00,WSDL version 426,2013-07-09 16:46:00,
2013-07-09 11:51:00,92.6,58.8,29.32,South,188,7.4,12.1,32,0.00,,,0.00,WSDL version 426,2013-07-09 16:51:00,
2013-07-09 11:56:00,93.1,58.5,29.32,SSW,194,6.7,11.0,31,0.00,,,0.00,WSDL version 426,2013-07-09 16:56:00,
2013-07-09 12:01:00,93.6,59.7,29.32,South,178,5.5,10.3,32,0.00,,,0.00,WSDL version 426,2013-07-09 17:01:00,
2013-07-09 12:06:00,94.0,59.4,29.29,SSE,163,7.7,13.0,32,0.00,,,0.00,WSDL version 426,2013-07-09 17:06:00,
2013-07-09 12:11:00,94.4,59.1,29.29,South,173,6.1,13.6,31,0.00,,,0.00,WSDL version 426,2013-07-09 17:11:00,
2013-07-09 12:16:00,94.6,59.1,29.29,SSE,160,5.6,13.6,31,0.00,,,0.00,WSDL version 426,2013-07-09 17:16:00,
2013-07-09 12:21:00,95.2,58.6,29.29,South,190,6.2,12.3,29,0.00,,,0.00,WSDL version 426,2013-07-09 17:21:00,
2013-07-09 12:26:00,95.0,58.2,29.29,South,173,7.2,10.7,30,0.00,,,0.00,WSDL version 426,2013-07-09 17:26:00,
2013-07-09 12:31:00,95.3,58.4,29.29,SSW,196,7.0,13.0,29,0.00,,,0.00,WSDL version 426,2013-07-09 17:31:00,
2013-07-09 12:36:00,95.8,58.3,29.29,South,174,7.9,15.2,28,0.00,,,0.00,WSDL version 426,2013-07-09 17:36:00,
2013-07-09 12:41:00,96.0,58.6,29.29,South,169,7.4,15.2,29,0.00,,,0.00,WSDL version 426,2013-07-09 17:41:00,
2013-07-09 12:46:00,96.4,59.0,29.29,SSE,150,6.0,11.0,28,0.00,,,0.00,WSDL version 426,2013-07-09 17:46:00,
2013-07-09 12:51:00,96.6,58.8,29.29,SE,141,8.1,12.8,28,0.00,,,0.00,WSDL version 426,2013-07-09 17:51:00,
2013-07-09 12:56:00,96.7,58.1,29.29,South,190,7.2,17.2,28,0.00,,,0.00,WSDL version 426,2013-07-09 17:56:00,
2013-07-09 13:01:00,96.7,58.2,29.29,SSE,163,4.7,17.2,28,0.00,,,0.00,WSDL version 426,2013-07-09 18:01:00,
2013-07-09 13:06:00,97.2,58.0,29.29,SSW,210,6.7,10.1,27,0.00,,,0.00,WSDL version 426,2013-07-09 18:06:00,
2013-07-09 13:12:00,97.6,58.3,29.29,South,180,8.4,12.8,27,0.00,,,0.00,WSDL version 426,2013-07-09 18:12:00,
2013-07-09 13:17:00,98.1,58.4,29.29,SSE,158,7.4,12.8,27,0.00,,,0.00,WSDL version 426,2013-07-09 18:17:00,
2013-07-09 13:22:00,98.0,58.3,29.29,South,173,9.5,14.8,27,0.00,,,0.00,WSDL version 426,2013-07-09 18:22:00,
2013-07-09 13:27:00,98.1,58.7,29.29,South,174,7.5,14.8,27,0.00,,,0.00,WSDL version 426,2013-07-09 18:27:00,
2013-07-09 13:32:00,98.5,59.0,29.29,South,172,6.8,14.3,27,0.00,,,0.00,WSDL version 426,2013-07-09 18:32:00,
2013-07-09 13:37:00,99.0,59.0,29.29,SSE,149,6.8,14.3,26,0.00,,,0.00,WSDL version 426,2013-07-09 18:37:00,
2013-07-09 13:42:00,99.0,58.2,29.29,South,177,6.5,12.3,26,0.00,,,0.00,WSDL version 426,2013-07-09 18:42:00,
2013-07-09 13:47:00,99.3,58.4,29.29,SSE,160,7.7,12.3,26,0.00,,,0.00,WSDL version 426,2013-07-09 18:47:00,
2013-07-09 13:52:00,99.1,58.3,29.26,South,173,7.7,13.0,26,0.00,,,0.00,WSDL version 426,2013-07-09 18:52:00,
2013-07-09 13:57:00,99.5,58.7,29.26,SSE,168,7.0,13.0,26,0.00,,,0.00,WSDL version 426,2013-07-09 18:57:00,
2013-07-09 14:02:00,99.4,58.3,29.26,SSW,197,6.9,13.0,26,0.00,,,0.00,WSDL version 426,2013-07-09 19:02:00,
2013-07-09 14:07:00,99.1,58.3,29.26,SSW,200,9.3,13.2,26,0.00,,,0.00,WSDL version 426,2013-07-09 19:07:00,
2013-07-09 14:12:00,98.9,58.0,29.26,SSW,209,5.2,14.3,26,0.00,,,0.00,WSDL version 426,2013-07-09 19:12:00,
2013-07-09 14:18:00,98.8,57.8,29.26,South,190,7.7,14.3,26,0.00,,,0.00,WSDL version 426,2013-07-09 19:18:00,
2013-07-09 14:23:00,98.6,57.8,29.26,SSE,160,7.4,15.2,26,0.00,,,0.00,WSDL version 426,2013-07-09 19:23:00,
2013-07-09 14:28:00,99.3,58.4,29.26,SSW,205,6.3,15.2,26,0.00,,,0.00,WSDL version 426,2013-07-09 19:28:00,
2013-07-09 14:33:00,99.3,57.8,29.26,SW,217,7.5,11.0,25,0.00,,,0.00,WSDL version 426,2013-07-09 19:33:00,
2013-07-09 14:38:00,99.4,58.5,29.26,SE,146,7.6,15.4,26,0.00,,,0.00,WSDL version 426,2013-07-09 19:38:00,
2013-07-09 14:43:00,100.0,58.8,29.26,SSW,209,6.6,15.4,25,0.00,,,0.00,WSDL version 426,2013-07-09 19:43:00,
2013-07-09 14:48:00,99.8,58.8,29.26,SSW,208,6.5,11.0,26,0.00,,,0.00,WSDL version 426,2013-07-09 19:48:00,
2013-07-09 14:53:00,99.7,58.2,29.26,South,173,8.2,14.8,26,0.00,,,0.00,WSDL version 426,2013-07-09 19:53:00,
2013-07-09 14:58:00,100.7,58.7,29.26,South,178,9.0,14.8,25,0.00,,,0.00,WSDL version 426,2013-07-09 19:58:00,
2013-07-09 15:03:00,101.2,58.9,29.26,SSW,200,6.0,12.5,25,0.00,,,0.00,WSDL version 426,2013-07-09 20:03:00,
2013-07-09 15:08:00,100.4,57.9,29.26,SSW,194,7.6,13.0,25,0.00,,,0.00,WSDL version 426,2013-07-09 20:08:00,
2013-07-09 15:13:00,100.7,58.7,29.26,SSE,158,7.8,15.4,25,0.00,,,0.00,WSDL version 426,2013-07-09 20:13:00,
2013-07-09 15:18:00,101.9,59.3,29.26,SSE,158,7.3,15.4,25,0.00,,,0.00,WSDL version 426,2013-07-09 20:18:00,
2013-07-09 15:23:00,102.1,58.1,29.26,SSE,168,7.4,17.7,23,0.00,,,0.00,WSDL version 426,2013-07-09 20:23:00,
2013-07-09 15:28:00,101.9,58.2,29.26,SSE,168,6.1,17.7,24,0.00,,,0.00,WSDL version 426,2013-07-09 20:28:00,
2013-07-09 15:33:00,101.9,57.7,29.26,South,190,5.5,19.2,23,0.00,,,0.00,WSDL version 426,2013-07-09 20:33:00,
2013-07-09 15:38:00,101.6,57.5,29.23,South,175,8.0,19.2,24,0.00,,,0.00,WSDL version 426,2013-07-09 20:38:00,
2013-07-09 15:43:00,101.5,56.8,29.23,SSW,208,7.1,14.5,23,0.00,,,0.00,WSDL version 426,2013-07-09 20:43:00,
2013-07-09 15:48:00,100.9,57.0,29.23,South,178,6.8,11.0,24,0.00,,,0.00,WSDL version 426,2013-07-09 20:48:00,
2013-07-09 15:53:00,101.2,57.6,29.23,SW,217,7.1,11.0,24,0.00,,,0.00,WSDL version 426,2013-07-09 20:53:00,
2013-07-09 15:58:00,101.8,57.0,29.23,SSW,211,6.9,12.5,22,0.00,,,0.00,WSDL version 426,2013-07-09 20:58:00,
2013-07-09 16:03:00,101.5,56.1,29.23,South,190,6.6,13.4,22,0.00,,,0.00,WSDL version 426,2013-07-09 21:03:00,
2013-07-09 16:08:00,101.2,55.6,29.23,South,186,5.8,19.2,22,0.00,,,0.00,WSDL version 426,2013-07-09 21:08:00,
2013-07-09 16:13:00,101.7,56.0,29.23,South,183,6.3,19.2,22,0.00,,,0.00,WSDL version 426,2013-07-09 21:13:00,
2013-07-09 16:18:00,101.7,56.0,29.23,South,170,5.3,11.0,22,0.00,,,0.00,WSDL version 426,2013-07-09 21:18:00,
2013-07-09 16:23:00,102.2,56.2,29.23,South,185,6.5,10.5,22,0.00,,,0.00,WSDL version 426,2013-07-09 21:23:00,
2013-07-09 16:28:00,101.7,55.9,29.23,SSW,210,7.1,10.7,23,0.00,,,0.00,WSDL version 426,2013-07-09 21:28:00,
2013-07-09 16:33:00,101.1,55.3,29.23,SSW,200,7.0,15.4,22,0.00,,,0.00,WSDL version 426,2013-07-09 21:33:00,
2013-07-09 16:38:00,101.2,55.6,29.26,SW,225,8.1,15.4,22,0.00,,,0.00,WSDL version 426,2013-07-09 21:38:00,
2013-07-09 16:43:00,101.5,55.2,29.26,South,188,9.1,14.8,22,0.00,,,0.00,WSDL version 426,2013-07-09 21:43:00,
2013-07-09 16:48:00,101.8,54.9,29.26,SSW,210,8.7,15.4,21,0.00,,,0.00,WSDL version 426,2013-07-09 21:48:00,
2013-07-09 16:53:00,101.1,55.2,29.23,SW,222,6.8,15.4,22,0.00,,,0.00,WSDL version 426,2013-07-09 21:53:00,
2013-07-09 16:58:00,101.2,55.1,29.23,SW,235,9.3,17.4,21,0.00,,,0.00,WSDL version 426,2013-07-09 21:58:00,
2013-07-09 17:03:00,101.2,54.8,29.23,SSW,203,5.6,17.4,22,0.00,,,0.00,WSDL version 426,2013-07-09 22:03:00,
2013-07-09 17:08:00,102.5,55.9,29.23,SSW,198,4.0,11.4,21,0.00,,,0.00,WSDL version 426,2013-07-09 22:08:00,
2013-07-09 17:13:00,102.9,55.5,29.23,South,183,8.1,13.0,21,0.00,,,0.00,WSDL version 426,2013-07-09 22:13:00,
2013-07-09 17:18:00,103.4,54.8,29.23,SSW,206,5.8,13.0,20,0.00,,,0.00,WSDL version 426,2013-07-09 22:18:00,
2013-07-09 17:23:00,103.3,54.2,29.23,SSW,203,6.2,13.2,19,0.00,,,0.00,WSDL version 426,2013-07-09 22:23:00,
2013-07-09 17:28:00,103.0,53.3,29.23,South,188,7.7,14.3,20,0.00,,,0.00,WSDL version 426,2013-07-09 22:28:00,
2013-07-09 17:33:00,102.9,53.1,29.23,SSW,212,7.4,14.3,19,0.00,,,0.00,WSDL version 426,2013-07-09 22:33:00,
2013-07-09 17:39:00,102.8,52.4,29.23,SW,228,6.8,13.0,18,0.00,,,0.00,WSDL version 426,2013-07-09 22:39:00,
2013-07-09 17:44:00,102.5,52.4,29.23,SW,231,7.2,13.0,19,0.00,,,0.00,WSDL version 426,2013-07-09 22:44:00,
2013-07-09 17:49:00,103.0,52.8,29.23,South,188,4.8,9.8,19,0.00,,,0.00,WSDL version 426,2013-07-09 22:49:00,
2013-07-09 17:54:00,103.9,53.3,29.23,SSW,210,4.8,9.6,18,0.00,,,0.00,WSDL version 426,2013-07-09 22:54:00,
2013-07-09 17:59:00,103.9,53.0,29.23,SW,222,4.8,9.6,19,0.00,,,0.00,WSDL version 426,2013-07-09 22:59:00,
2013-07-09 18:04:00,103.8,52.9,29.23,SSW,193,6.6,9.6,18,0.00,,,0.00,WSDL version 426,2013-07-09 23:04:00,
2013-07-09 18:09:00,103.8,52.5,29.23,South,177,4.8,9.6,19,0.00,,,0.00,WSDL version 426,2013-07-09 23:09:00,
2013-07-09 18:14:00,104.3,52.4,29.23,SSE,161,6.8,10.1,18,0.00,,,0.00,WSDL version 426,2013-07-09 23:14:00,
2013-07-09 18:19:00,104.0,52.1,29.23,SSW,195,4.6,10.3,18,0.00,,,0.00,WSDL version 426,2013-07-09 23:19:00,
2013-07-09 18:24:00,104.2,52.3,29.23,SSE,164,4.8,10.3,18,0.00,,,0.00,WSDL version 426,2013-07-09 23:24:00,
2013-07-09 18:29:00,104.2,51.7,29.23,South,185,7.7,19.7,18,0.00,,,0.00,WSDL version 426,2013-07-09 23:29:00,
2013-07-09 18:34:00,103.5,51.2,29.23,South,191,5.6,19.7,18,0.00,,,0.00,WSDL version 426,2013-07-09 23:34:00,
2013-07-09 18:39:00,102.7,51.4,29.23,South,186,5.4,11.0,19,0.00,,,0.00,WSDL version 426,2013-07-09 23:39:00,
2013-07-09 18:44:00,102.2,51.7,29.23,SSW,200,6.0,11.0,19,0.00,,,0.00,WSDL version 426,2013-07-09 23:44:00,
2013-07-09 18:49:00,102.9,52.7,29.23,South,174,3.7,10.3,19,0.00,,,0.00,WSDL version 426,2013-07-09 23:49:00,
2013-07-09 18:54:00,103.4,52.5,29.23,South,188,7.7,11.0,18,0.00,,,0.00,WSDL version 426,2013-07-09 23:54:00,
2013-07-09 18:59:00,103.2,52.0,29.23,South,180,6.6,13.0,18,0.00,,,0.00,WSDL version 426,2013-07-09 23:59:00,
2013-07-09 19:04:00,103.7,51.9,29.23,SSE,165,6.4,13.0,18,0.00,,,0.00,WSDL version 426,2013-07-10 00:04:00,
2013-07-09 19:09:00,103.8,51.8,29.21,South,183,7.5,12.5,18,0.00,,,0.00,WSDL version 426,2013-07-10 00:09:00,
2013-07-09 19:14:00,103.0,51.4,29.21,South,190,5.3,12.5,18,0.00,,,0.00,WSDL version 426,2013-07-10 00:14:00,
2013-07-09 19:19:00,102.5,50.9,29.21,South,173,6.9,11.9,18,0.00,,,0.00,WSDL version 426,2013-07-10 00:19:00,
2013-07-09 19:24:00,102.3,50.8,29.23,South,180,7.5,12.8,18,0.00,,,0.00,WSDL version 426,2013-07-10 00:24:00,
2013-07-09 19:29:00,102.0,51.5,29.23,SSE,158,5.9,12.8,19,0.00,,,0.00,WSDL version 426,2013-07-10 00:29:00,
2013-07-09 19:34:00,101.9,51.4,29.23,SSE,166,6.4,11.4,19,0.00,,,0.00,WSDL version 426,2013-07-10 00:34:00,
2013-07-09 19:39:00,101.8,51.9,29.21,SSE,155,4.5,11.0,19,0.00,,,0.00,WSDL version 426,2013-07-10 00:39:00,
2013-07-09 19:54:00,100.7,51.0,29.21,SSE,148,5.0,10.7,19,0.00,,,0.00,WSDL version 426,2013-07-10 00:54:00,
2013-07-09 19:59:00,100.4,51.5,29.21,SSE,150,5.2,10.7,20,0.00,,,0.00,WSDL version 426,2013-07-10 00:59:00,
2013-07-09 20:04:00,100.3,52.7,29.21,SSE,166,3.8,8.5,21,0.00,,,0.00,WSDL version 426,2013-07-10 01:04:00,
2013-07-09 20:09:00,99.5,54.3,29.21,SSE,155,3.5,8.7,23,0.00,,,0.00,WSDL version 426,2013-07-10 01:09:00,
2013-07-09 20:14:00,99.1,54.9,29.21,SSE,165,4.1,8.7,23,0.00,,,0.00,WSDL version 426,2013-07-10 01:14:00,
2013-07-09 20:19:00,98.2,55.2,29.21,SSE,161,3.9,8.5,25,0.00,,,0.00,WSDL version 426,2013-07-10 01:19:00,
2013-07-09 20:24:00,97.0,56.3,29.21,SSE,158,3.7,7.6,26,0.00,,,0.00,WSDL version 426,2013-07-10 01:24:00,
2013-07-09 20:29:00,95.8,55.8,29.21,South,172,3.7,7.6,27,0.00,,,0.00,WSDL version 426,2013-07-10 01:29:00,
2013-07-09 20:34:00,94.5,56.0,29.21,SSE,167,5.2,8.5,28,0.00,,,0.00,WSDL version 426,2013-07-10 01:34:00,
2013-07-09 20:39:00,93.8,55.8,29.21,South,175,3.7,8.5,28,0.00,,,0.00,WSDL version 426,2013-07-10 01:39:00,
2013-07-09 20:44:00,93.2,56.2,29.21,South,169,3.2,5.6,29,0.00,,,0.00,WSDL version 426,2013-07-10 01:44:00,
2013-07-09 20:49:00,92.4,56.5,29.21,SSE,151,3.0,5.8,30,0.00,,,0.00,WSDL version 426,2013-07-10 01:49:00,
2013-07-09 20:54:00,92.1,56.9,29.21,South,169,4.4,6.3,31,0.00,,,0.00,WSDL version 426,2013-07-10 01:54:00,
2013-07-09 20:59:00,91.6,56.9,29.21,SSE,165,3.9,6.3,32,0.00,,,0.00,WSDL version 426,2013-07-10 01:59:00,
2013-07-09 21:04:00,90.9,57.4,29.21,SSE,155,5.0,6.5,33,0.00,,,0.00,WSDL version 426,2013-07-10 02:04:00,
2013-07-09 21:09:00,90.6,57.7,29.21,SSE,155,4.1,6.5,34,0.00,,,0.00,WSDL version 426,2013-07-10 02:09:00,
2013-07-09 21:14:00,90.1,58.0,29.21,SSE,158,3.8,6.0,34,0.00,,,0.00,WSDL version 426,2013-07-10 02:14:00,
2013-07-09 21:19:00,89.6,58.2,29.21,South,177,3.3,5.8,36,0.00,,,0.00,WSDL version 426,2013-07-10 02:19:00,
2013-07-09 21:24:00,89.2,59.0,29.21,SSE,152,3.7,6.5,37,0.00,,,0.00,WSDL version 426,2013-07-10 02:24:00,
2013-07-09 21:29:00,89.0,59.3,29.21,SSE,158,3.8,6.5,37,0.00,,,0.00,WSDL version 426,2013-07-10 02:29:00,
2013-07-09 21:34:00,88.6,59.7,29.21,SSE,160,4.1,8.5,38,0.00,,,0.00,WSDL version 426,2013-07-10 02:34:00,
2013-07-09 21:39:00,88.3,59.5,29.21,SSE,160,4.5,8.5,38,0.00,,,0.00,WSDL version 426,2013-07-10 02:39:00,
2013-07-09 21:44:00,88.2,59.4,29.21,SSE,152,4.0,8.1,38,0.00,,,0.00,WSDL version 426,2013-07-10 02:44:00,
2013-07-09 21:49:00,87.8,59.6,29.21,SSE,163,4.3,6.5,39,0.00,,,0.00,WSDL version 426,2013-07-10 02:49:00,
2013-07-09 21:54:00,87.8,59.8,29.23,SE,145,3.4,6.5,39,0.00,,,0.00,WSDL version 426,2013-07-10 02:54:00,
2013-07-09 21:59:00,87.7,59.8,29.23,SSE,168,3.2,6.0,39,0.00,,,0.00,WSDL version 426,2013-07-10 02:59:00,
2013-07-09 22:04:00,87.4,60.2,29.23,SSE,166,3.0,6.0,40,0.00,,,0.00,WSDL version 426,2013-07-10 03:04:00,
2013-07-09 22:09:00,87.2,60.0,29.23,SSE,150,3.0,4.9,40,0.00,,,0.00,WSDL version 426,2013-07-10 03:09:00,
2013-07-09 22:14:00,87.0,59.8,29.23,SSE,158,3.5,5.4,40,0.00,,,0.00,WSDL version 426,2013-07-10 03:14:00,
2013-07-09 22:19:00,86.7,60.1,29.23,SSE,163,3.5,5.4,41,0.00,,,0.00,WSDL version 426,2013-07-10 03:19:00,
2013-07-09 22:24:00,86.5,60.1,29.23,SSE,163,3.3,5.4,41,0.00,,,0.00,WSDL version 426,2013-07-10 03:24:00,
2013-07-09 22:29:00,86.2,59.9,29.23,SSE,161,3.3,6.5,42,0.00,,,0.00,WSDL version 426,2013-07-10 03:29:00,
2013-07-09 22:34:00,86.0,60.3,29.23,SSE,163,3.6,6.5,42,0.00,,,0.00,WSDL version 426,2013-07-10 03:34:00,
2013-07-09 22:39:00,85.7,60.3,29.23,SSE,163,3.7,5.8,42,0.00,,,0.00,WSDL version 426,2013-07-10 03:39:00,
2013-07-09 22:44:00,85.6,60.5,29.23,SSE,166,4.1,6.0,43,0.00,,,0.00,WSDL version 426,2013-07-10 03:44:00,
2013-07-09 22:49:00,85.3,60.3,29.23,SSE,168,3.9,7.2,43,0.00,,,0.00,WSDL version 426,2013-07-10 03:49:00,
2013-07-09 22:54:00,85.4,60.4,29.23,SSE,155,3.2,7.2,43,0.00,,,0.00,WSDL version 426,2013-07-10 03:54:00,
2013-07-09 22:59:00,85.6,60.0,29.23,SSE,166,3.8,5.6,42,0.00,,,0.00,WSDL version 426,2013-07-10 03:59:00,
2013-07-09 23:01:00,85.3,59.7,29.23,SSE,160,3.8,5.6,42,0.00,,,0.00,WSDL version 426,2013-07-10 04:01:00,
2013-07-09 23:02:00,85.3,59.6,29.23,SSE,155,3.8,5.6,42,0.00,,,0.00,WSDL version 426,2013-07-10 04:02:00,
2013-07-09 23:03:00,85.2,59.5,29.23,SSE,158,3.9,5.6,42,0.00,,,0.00,WSDL version 426,2013-07-10 04:03:00,
2013-07-09 23:08:00,84.8,59.7,29.23,South,169,3.2,6.0,43,0.00,,,0.00,WSDL version 426,2013-07-10 04:08:00,
2013-07-09 23:09:00,84.7,59.8,29.23,South,178,3.3,6.0,43,0.00,,,0.00,WSDL version 426,2013-07-10 04:09:00,
2013-07-09 23:14:00,84.8,59.9,29.23,South,172,3.1,6.0,43,0.00,,,0.00,WSDL version 426,2013-07-10 04:14:00,
2013-07-09 23:19:00,84.8,59.7,29.23,South,175,3.1,6.5,42,0.00,,,0.00,WSDL version 426,2013-07-10 04:19:00,
2013-07-09 23:24:00,84.5,58.9,29.23,SSE,150,2.4,6.5,42,0.00,,,0.00,WSDL version 426,2013-07-10 04:24:00,
2013-07-09 23:29:00,84.0,59.0,29.23,SSE,163,3.2,4.9,43,0.00,,,0.00,WSDL version 426,2013-07-10 04:29:00,
2013-07-09 23:34:00,83.8,59.3,29.23,SSE,158,1.8,4.9,44,0.00,,,0.00,WSDL version 426,2013-07-10 04:34:00,
2013-07-09 23:39:00,83.9,59.5,29.23,South,169,2.0,4.3,44,0.00,,,0.00,WSDL version 426,2013-07-10 04:39:00,
2013-07-09 23:44:00,83.8,59.0,29.23,SSE,163,3.3,4.3,43,0.00,,,0.00,WSDL version 426,2013-07-10 04:44:00,
2013-07-09 23:49:00,83.4,58.5,29.23,SE,138,1.9,4.3,43,0.00,,,0.00,WSDL version 426,2013-07-10 04:49:00,
2013-07-09 23:54:00,83.1,58.6,29.23,SSE,160,2.1,5.4,44,0.00,,,0.00,WSDL version 426,2013-07-10 04:54:00,
2013-07-09 23:59:00,83.2,59.0,29.23,SE,146,2.5,5.4,44,0.00,,,0.00,WSDL version 426,2013-07-10 04:59:00,